Regional Weather Roundup
Issued by NWS Green Bay, WI

Home | Current Version | Previous Version | Graphics & Text | Print | Product List | Glossary Off
Versions: 1 2 3 4 5 6 7 8 9 10 11 12 13 14 15 16 17 18 19 20 21 22 23 24 25 26 27 28 29 30 31 32 33 34 35 36 37 38 39 40 41 42 43 44 45 46 47 48 49 50

000
ASUS43 KGRB 310410
RWRGRB

NORTH-CENTRAL AND NORTHEAST WISCONSIN REGIONAL WEATHER ROUNDUP
NATIONAL WEATHER SERVICE GREEN BAY WI
1100 PM CDT THU OCT 30 2014

WIZ005-009-010>012-018-019-310500-
NORTH CENTRAL WISCONSIN

CITY           SKY/WX    TMP DP  RH WIND       PRES   REMARKS
IRONWOOD       CLOUDY    30  28  93 N17G29    30.14R
MANITOWISH WTR SNOW      32  32 100 N7        30.09R VSB 1/2
ARBOR VITAE    LGT SNOW  34  32  94 N10G16    30.07R
EAGLE RIVER    LGT SNOW  32  32  99 NW10      30.03S VSB 3/4
LAND O LAKES   LGT SNOW  32  31  95 N6        30.05R
RHINELANDER    LGT SNOW  32  31  96 N10G17    30.06S VSB 3/4
PHILLIPS       CLOUDY    31  26  81 NW14      30.13R
ANTIGO         CLOUDY    35  31  88 NW15G21   30.04R
TOMAHAWK       CLOUDY    32  28  85 NW13G23   30.09R
MERRILL        CLOUDY    35  29  80 N15G24    30.08R
$$

WIZ013-073-310500-
NORTHEAST WISCONSIN

CITY           SKY/WX    TMP DP  RH WIND       PRES   REMARKS
IRON MOUNTAIN  LGT RAIN  36  31  82 NW14      29.99R
MARINETTE      CLOUDY    41  30  65 NW6       29.98F
OCONTO         CLOUDY    41  32  71 NW7       30.00F
$$

WIZ017-030-035>037-045-310500-
CENTRAL WISCONSIN

CITY           SKY/WX    TMP DP  RH WIND       PRES   REMARKS
MEDFORD        CLOUDY    32  29  87 NW17G24   30.12R
WAUSAU         CLOUDY    37  30  75 NW12G25   30.06R
MOSINEE        MOCLDY    36  32  87 NW15G22   30.08R
MARSHFIELD     FLURRIES  35  30  82 N21G36    30.11R
WISC RAPIDS    CLOUDY    38  33  82 NW13G20   30.10R
STEVENS POINT  CLOUDY    38  30  72 NW12G24   30.07R
WAUPACA        CLEAR     43  32  64 W10G16    30.05S
SHAWANO        MOCLDY    42  31  65 NW13G18   30.03S
CLINTONVILLE   PTCLDY    41  30  65 NW9       30.03S
$$

WIZ038-039-048-051-310500-
FOX VALLEY

CITY           SKY/WX    TMP DP  RH WIND       PRES   REMARKS
NWS GREEN BAY  CLOUDY    44  33  65 NW10      30.02S
APPLETON       MOCLDY    43  32  65 NW10      30.03S
OSHKOSH        CLOUDY    44  34  67 W10       30.03S
FOND DU LAC    CLOUDY    44  32  62 NW14      30.04R
$$

WIZ022-050-052-310500-
EAST CENTRAL WISCONSIN

CITY           SKY/WX    TMP DP  RH WIND       PRES   REMARKS
STURGEON BAY   CLOUDY    43  30  61 NW17G25   29.99S
MANITOWOC      CLOUDY    45  34  65 NW10      30.00S
SHEBOYGAN      CLOUDY    45  33  63 NW16G22   30.01S
$$

LMZ563-521-522-541>543-310500-
LAKESHORE

STATION/POSITION TIME  TEMP    WIND        PRES    VSBY  WAVE
                       AIR SEA DIR/SP/G                  HT/PER
                 (UTC) (F)     (DEG/KT/KT) (MB)    (MI)  (FT/S)
SHEBOYGAN LKSHOR 0400   46 50  310/ 11/ 14 1016.7S
KEWAUNEE LKSHORE 0400   44     310/  6/  9 1014.8S
NORTHPORT PIER   0400   43     310/ 15/ 19 1014.9S
N MID LAKE BUOY  0400   44 51  300/ 19/ 21 1014.2F         3/ 4
CHAMBERS ISLAND  0400   43     300/  6/ 12 1015.2F
MENOMINEE LKSHOR 0400   43     290/  8/ 15 1016.0F
$$



USA.gov is the U.S. government's official web portal to all federal, state and local government web resources and services.